Printer-friendly version

IAU Minor Planet Center

Minor Planet Center

MPEC 2001-V50: 2001 VG5

The following Minor Planet Electronic Circular may be linked-to from your own Web pages, but must not otherwise be redistributed electronically.


Read MPEC 2001-V49 Read MPEC 2001-V51


M.P.E.C. 2001-V50                                Issued 2001 Nov. 13, 19:04 UT

     The Minor Planet Electronic Circulars contain information on unusual
         minor planets and routine data on comets.  They are published
   on behalf of Commission 20 of the International Astronomical Union by the
          Minor Planet Center, Smithsonian Astrophysical Observatory,
                          Cambridge, MA 02138, U.S.A.

             Prepared using the Tamkin Foundation Computer Network

                              MPC@CFA.HARVARD.EDU
          URL http://cfa-www.harvard.edu/iau/mpc.html  ISSN 1523-6714

                                   2001 VG5

Observations:
     K01V05G  C2001 10 21.33338 04 27 40.90 +29 37 41.9          19.4        704
     K01V05G  C2001 10 21.35143 04 27 40.64 +29 37 40.1          19.1        704
     K01V05G  C2001 10 21.36754 04 27 40.30 +29 37 37.0          19.5        704
     K01V05G* C2001 11 10.38093 04 13 20.79 +27 41 31.7          18.2        704
     K01V05G  C2001 11 10.39532 04 13 19.72 +27 41 23.6          19.0        704
     K01V05G  C2001 11 10.40972 04 13 18.65 +27 41 14.8          18.5        704
     K01V05G  C2001 11 10.42411 04 13 17.62 +27 41 06.3          19.3        704
     K01V05G  C2001 11 11.35160 04 12 08.66 +27 32 06.1          18.4        704
     K01V05G  C2001 11 11.36626 04 12 07.47 +27 31 57.2          18.9        704
     K01V05G  C2001 11 11.38089 04 12 06.30 +27 31 48.8          18.8        704
     K01V05G  C2001 11 11.39552 04 12 05.16 +27 31 39.4          18.8        704
     K01V05G  C2001 11 11.41016 04 12 03.98 +27 31 30.7          18.1        704
     K01V05G  C2001 11 11.49933 04 11 56.94 +27 30 36.8          19.0 V      691
     K01V05G  C2001 11 11.51586 04 11 55.65 +27 30 26.4          18.7 V      691
     K01V05G  C2001 11 11.53221 04 11 54.38 +27 30 16.3          18.7 V      691
     K01V05G  C2001 11 12.29357 04 10 56.19 +27 22 32.2          18.9        704
     K01V05G  C2001 11 12.30829 04 10 54.92 +27 22 24.3          19.1        704
     K01V05G  C2001 11 12.32304 04 10 53.74 +27 22 14.9          18.9        704
     K01V05G  C2001 11 12.33777 04 10 52.49 +27 22 05.5          18.8        704
     K01V05G  C2001 11 12.35249 04 10 51.28 +27 21 55.8          18.7        704

Observer details:
691 Steward Observatory, Kitt Peak.  Observer A. F. Tubbiolo.  0.9-m
    Spacewatch telescope.
704 Lincoln Laboratory ETS, New Mexico.  Observers M. Blythe, F. Shelly,
    M. Bezpalko, R. Huber, L. Manguso, S. Adams, J. Piscitelli.  Measurers
    J. Stuart, R. Sayer, J. B. Evans, H. Viggh.  1.0-m f/2.15 reflector + CCD.

Orbital elements:
2001 VG5
Epoch 2001 Oct. 18.0 TT = JDT 2452200.5                 MPC
M 312.51043              (2000.0)            P               Q
n   0.29496729     Peri.  278.75338     -0.95481792     -0.20303438
a   2.2350478      Node   249.75866     +0.26515743     -0.91179386
e   0.5979735      Incl.   13.37419     -0.13421729     -0.35694397
P   3.34           H   16.6           G   0.15
From 20 observations 2001 Oct. 21-Nov. 12.

Ephemeris:
2001 VG5                 a,e,i = 2.24, 0.60, 13                  q = 0.8985
Date    TT    R. A. (2000) Decl.     Delta      r     Elong.  Phase     V
2001 11 07    04 17.18   +28 11.2    0.930    1.881   156.3    12.2    18.5
2001 11 17    04 04.25   +26 28.6    0.820    1.801   169.0     6.0    17.9
2001 11 27    03 47.23   +23 57.2    0.735    1.719   173.7     3.6    17.5
2001 12 07    03 28.34   +20 38.7    0.675    1.636   159.9    11.9    17.5
2001 12 17    03 10.60   +16 50.0    0.640    1.551   144.7    21.5    17.6
2001 12 27    02 56.90   +12 58.7    0.624    1.466   130.2    30.8    17.7
2002 01 06    02 48.89   +09 28.3    0.619    1.380   117.0    39.4    17.8
2002 01 16    02 46.98   +06 29.7    0.619    1.295   105.5    47.1    17.9
2002 01 26    02 50.86   +04 02.2    0.617    1.212    95.6    54.0    17.9
2002 02 05    02 59.75   +01 56.6    0.607    1.132    87.2    60.4    17.9
2002 02 15    03 12.90   +00 01.4    0.587    1.059    80.1    66.7    17.9
2002 02 25    03 29.58   -01 56.5    0.555    0.995    74.3    73.2    17.9
2002 03 07    03 49.02   -04 10.9    0.510    0.945    69.7    79.9    17.8
2002 03 17    04 10.77   -06 54.4    0.454    0.912    66.2    86.7    17.7
2002 03 27    04 34.90   -10 22.0    0.389    0.899    64.1    93.0    17.6
2002 04 06    05 02.91   -14 52.7    0.320    0.907    64.0    97.4    17.4
2002 04 16    05 40.34   -20 59.8    0.252    0.937    67.6    98.1    17.0
2002 04 26    06 43.18   -29 36.9    0.190    0.984    77.9    91.2    16.2
2002 05 06    08 50.69   -38 49.5    0.150    1.046   100.1    71.8    15.1
2002 05 16    11 49.92   -35 59.4    0.158    1.117   129.0    44.7    14.5
2002 05 26    13 37.72   -25 15.7    0.215    1.195   144.8    29.3    14.9
2002 06 05    14 29.42   -18 00.1    0.303    1.278   146.5    26.0    15.7
2002 06 15    14 59.17   -14 04.7    0.408    1.363   142.6    26.9    16.5
2002 06 25    15 20.06   -12 05.4    0.528    1.449   137.2    28.5    17.3
2002 07 05    15 37.02   -11 12.0    0.659    1.534   131.4    29.8    17.9
2002 07 15    15 52.27   -10 57.1    0.802    1.619   125.4    30.8    18.5
2002 07 25    16 06.88   -11 04.9    0.955    1.703   119.5    31.3    19.0
2002 08 04    16 21.31   -11 25.4    1.117    1.785   113.6    31.4    19.4
2002 08 14    16 35.84   -11 52.3    1.287    1.865   107.8    31.1    19.8
2002 08 24    16 50.59   -12 21.2    1.463    1.943   102.0    30.6    20.2
2002 09 03    17 05.59   -12 49.0    1.645    2.019    96.1    29.8    20.5
2002 09 13    17 20.86   -13 13.8    1.830    2.093    90.3    28.7    20.8
2002 09 23    17 36.37   -13 33.9    2.018    2.165    84.5    27.5    21.0
2002 10 03    17 52.07   -13 48.2    2.206    2.235    78.6    26.0    21.2
2002 10 13    18 07.94   -13 56.1    2.393    2.303    72.7    24.4    21.4
2002 10 23    18 23.91   -13 57.0    2.576    2.369    66.8    22.7    21.6
2002 11 02    18 39.93   -13 50.5    2.755    2.432    60.9    20.9    21.8

Timothy B. Spahr             (C) Copyright 2001 MPC           M.P.E.C. 2001-V50

Read MPEC 2001-V49 Read MPEC 2001-V51


Our Web policy. Index to the CBAT/MPC/ICQ pages.


Valid HTML 4.01!